This is the latest recevied weather packets stored in our database for station/object CA3SQH-10. If no packets are shown the sender has not sent any weather packets the latest 1 day(s).
| Time | Temp. | Humidity | Pressure | Rain* | Wind** | Luminosity | Snow |
|---|---|---|---|---|---|---|---|
| 1778052479 | 14.44° C | 66% | 936.5 hPa | - | - | - | - |
| 1778050679 | 15° C | 67% | 936.6 hPa | - | - | - | - |
| 1778049779 | 15° C | 67% | 936.7 hPa | - | - | - | - |
| 1778047152 | 15.56° C | 66% | 937 hPa | - | - | - | - |
| 1778046183 | 15.56° C | 67% | 937.2 hPa | - | - | - | - |
| 1778045283 | 15.56° C | 67% | 937.1 hPa | - | - | - | - |
| 1778044383 | 15.56° C | 66% | 937.3 hPa | - | - | - | - |
| 1778041682 | 16.11° C | 65% | 937.4 hPa | - | - | - | - |
| 1778040782 | 16.11° C | 65% | 937.6 hPa | - | - | - | - |
| 1778039882 | 16.11° C | 65% | 937.6 hPa | - | - | - | - |
| 1778038081 | 16.11° C | 64% | 937.8 hPa | - | - | - | - |
| 1778037181 | 16.11° C | 64% | 937.7 hPa | - | - | - | - |
| 1778036281 | 16.11° C | 64% | 937.7 hPa | - | - | - | - |
| 1778035381 | 16.11° C | 65% | 937.7 hPa | - | - | - | - |
| 1778034480 | 16.11° C | 66% | 937.6 hPa | - | - | - | - |
| 1778033580 | 15° C | 68% | 937.7 hPa | - | - | - | - |
| 1778032680 | 15.56° C | 67% | 937.6 hPa | - | - | - | - |
| 1778031780 | 16.11° C | 67% | 937.6 hPa | - | - | - | - |
| 1778030879 | 16.67° C | 64% | 937.6 hPa | - | - | - | - |
| 1778029979 | 16.67° C | 64% | 937.7 hPa | - | - | - | - |
| 1778029151 | 17.22° C | 63% | 937.8 hPa | - | - | - | - |
| 1778029079 | 17.22° C | 63% | 937.8 hPa | - | - | - | - |
| 1778028179 | 17.22° C | 64% | 937.9 hPa | - | - | - | - |
| 1778027278 | 17.22° C | 63% | 937.7 hPa | - | - | - | - |
| 1778027025 | 17.22° C | 63% | 937.6 hPa | - | - | - | - |
* Rain since midnight (hover to see other rain measurements)
** Current wind speed in m/s (hover to see current wind gust speed)